contact: severine.martini@mio.osupytheas.fr, dominique.lefevre@mio.osupytheas.fr
Project:EMSO Ligure-ouest http://www.emso-fr.org/EMSO-France
Sensor Aquadopp, Serial 05974 
DOI : "https://doi.org/10.17882/97948" 
Title:EMSO Western Ligurian : Data Bathybot Aquadopp sensor - deploiement 2023-04-28
Datetime,Profondeur,Latitude,Longitude,X_East,Y_North,Z_up,Amplitude_X,Amplitude_Y,Amplitude_Z,Batterie,Sound_Speed,Heading,Pitch,Roll,Pressure,Temperature,Fluorescence,Speed,Direction
time,m,degree_north,degree_east,m.s-1,m.s-1,m.s-1,1,1,1,Volt,m.s-1,degree,degree,degree,dbar,degree_C,arbitrary units (a.u.),m.s-1,degree
2023-12-13T00:03:13,2420,42.8014,5.9826,0.918,0.033,3.364,155.0,151.0,152.0,11.8,1504.7,271.4,-0.9,0.9,2485.362,13.28,773.0,0.919,87.9
2023-12-13T00:06:13,2420,42.8014,5.9826,0.521,0.046,3.737,155.0,152.0,152.0,11.8,1504.7,271.5,-0.8,0.9,2485.394,13.28,762.0,0.523,85.0
2023-12-13T00:09:13,2420,42.8014,5.9826,0.598,0.055,3.671,155.0,151.0,152.0,11.8,1504.7,271.3,-0.9,0.9,2485.014,13.28,772.0,0.6,84.7
2023-12-13T00:12:13,2420,42.8014,5.9826,0.575,0.057,3.718,155.0,151.0,152.0,11.8,1504.7,271.4,-0.8,0.9,2485.562,13.28,764.0,0.578,84.3
2023-12-13T00:15:13,2420,42.8014,5.9826,0.576,0.048,3.644,155.0,151.0,152.0,11.8,1504.7,271.4,-0.8,0.9,2485.894,13.28,777.0,0.578,85.2
2023-12-13T00:18:13,2420,42.8014,5.9826,0.589,0.021,3.688,155.0,152.0,152.0,11.8,1504.7,271.4,-0.8,0.9,2485.414,13.28,772.0,0.589,88.0
2023-12-13T00:21:13,2420,42.8014,5.9826,0.41,0.029,3.827,155.0,151.0,152.0,11.8,1504.7,271.4,-0.8,0.9,2485.291,13.28,763.0,0.411,86.0
2023-12-13T00:24:13,2420,42.8014,5.9826,0.706,0.03,3.584,155.0,151.0,152.0,11.8,1504.7,271.5,-0.8,0.9,2485.548,13.28,764.0,0.707,87.6
2023-12-13T00:27:13,2420,42.8014,5.9826,0.663,0.066,3.583,155.0,151.0,152.0,11.8,1504.7,271.5,-0.8,0.9,2485.334,13.28,774.0,0.666,84.3
2023-12-13T00:30:13,2420,42.8014,5.9826,0.568,0.029,3.698,155.0,152.0,152.0,11.8,1504.7,271.4,-0.8,0.9,2485.328,13.28,764.0,0.569,87.1
2023-12-13T00:33:13,2420,42.8014,5.9826,0.534,0.041,3.765,155.0,151.0,152.0,11.8,1504.7,271.4,-0.9,0.9,2485.073,13.28,777.0,0.535,85.6
2023-12-13T00:36:13,2420,42.8014,5.9826,0.573,0.045,3.727,155.0,151.0,152.0,11.8,1504.7,271.4,-0.8,0.9,2485.269,13.28,763.0,0.575,85.5
2023-12-13T00:39:13,2420,42.8014,5.9826,0.424,0.063,3.854,155.0,152.0,152.0,11.8,1504.7,271.5,-0.8,0.9,2485.269,13.28,777.0,0.429,81.6
2023-12-13T00:42:13,2420,42.8014,5.9826,0.641,0.065,3.633,155.0,151.0,152.0,11.8,1504.7,271.4,-0.8,0.9,2485.095,13.28,780.0,0.644,84.2
2023-12-13T00:45:13,2420,42.8014,5.9826,0.575,0.063,3.759,155.0,152.0,152.0,11.8,1504.7,271.5,-0.8,0.9,2485.125,13.28,779.0,0.578,83.7
2023-12-13T00:48:13,2420,42.8014,5.9826,0.573,0.016,3.714,155.0,151.0,152.0,11.8,1504.7,271.3,-0.9,0.9,2485.287,13.28,785.0,0.573,88.4
2023-12-13T00:51:13,2420,42.8014,5.9826,0.575,0.046,3.714,155.0,151.0,152.0,11.8,1504.7,271.5,-0.8,0.9,2485.502,13.28,774.0,0.577,85.4
2023-12-13T00:54:13,2420,42.8014,5.9826,0.61,0.047,3.743,155.0,151.0,152.0,11.8,1504.7,271.3,-0.9,0.9,2485.243,13.28,764.0,0.612,85.6
2023-12-13T00:57:13,2420,42.8014,5.9826,0.765,0.02,3.518,155.0,151.0,152.0,11.8,1504.7,271.5,-0.8,0.9,2484.906,13.28,791.0,0.765,88.5
2023-12-13T01:03:13,2420,42.8014,5.9826,0.449,0.052,3.831,155.0,151.0,152.0,11.8,1504.7,271.3,-0.8,0.9,2485.452,13.28,761.0,0.452,83.4
2023-12-13T01:06:13,2420,42.8014,5.9826,0.468,0.059,3.812,155.0,151.0,152.0,11.8,1504.7,271.3,-0.9,0.9,2485.577,13.28,753.0,0.472,82.8
2023-12-13T01:09:13,2420,42.8014,5.9826,0.575,0.047,3.704,155.0,152.0,152.0,11.8,1504.7,271.3,-0.8,0.9,2485.504,13.28,764.0,0.577,85.3
2023-12-13T01:12:13,2420,42.8014,5.9826,0.61,0.046,3.633,155.0,151.0,152.0,11.8,1504.7,271.4,-0.8,0.9,2485.221,13.28,771.0,0.612,85.7
2023-12-13T01:15:13,2420,42.8014,5.9826,0.644,0.038,3.613,155.0,151.0,152.0,11.8,1504.7,271.4,-0.8,0.9,2485.33,13.28,783.0,0.645,86.6
2023-12-13T01:18:13,2420,42.8014,5.9826,0.753,0.054,3.476,155.0,151.0,152.0,11.8,1504.7,271.3,-0.8,0.9,2485.699,13.28,768.0,0.755,85.9
2023-12-13T01:21:12,2420,42.8014,5.9826,0.462,0.056,3.837,155.0,151.0,152.0,11.8,1504.7,271.4,-0.9,0.9,2485.167,13.28,780.0,0.465,83.1
2023-12-13T01:24:12,2420,42.8014,5.9826,0.449,0.047,3.839,155.0,151.0,152.0,11.8,1504.7,271.4,-0.8,0.9,2485.444,13.28,771.0,0.451,84.0
2023-12-13T01:27:13,2420,42.8014,5.9826,0.818,0.036,3.478,155.0,151.0,152.0,11.8,1504.7,271.4,-0.8,0.8,2485.35,13.28,765.0,0.819,87.5
2023-12-13T01:30:13,2420,42.8014,5.9826,0.617,0.068,3.686,155.0,151.0,152.0,11.7,1504.7,271.3,-0.9,0.9,2485.34,13.28,774.0,0.621,83.7
2023-12-13T01:33:12,2420,42.8014,5.9826,0.542,0.041,3.664,154.0,151.0,152.0,11.8,1504.7,271.4,-0.8,0.9,2485.488,13.28,789.0,0.543,85.7
2023-12-13T01:36:13,2420,42.8014,5.9826,0.591,0.045,3.632,155.0,152.0,152.0,11.8,1504.7,271.3,-0.9,0.9,2485.436,13.28,781.0,0.593,85.6
2023-12-13T01:39:13,2420,42.8014,5.9826,0.516,0.048,3.779,155.0,152.0,152.0,11.8,1504.7,271.3,-0.9,0.9,2485.691,13.28,793.0,0.518,84.7
2023-12-13T01:42:13,2420,42.8014,5.9826,0.702,0.058,3.528,155.0,151.0,152.0,11.8,1504.7,271.4,-0.9,0.9,2485.183,13.28,754.0,0.704,85.3
2023-12-13T01:45:13,2420,42.8014,5.9826,0.523,0.058,3.708,155.0,151.0,152.0,11.8,1504.7,271.4,-0.9,0.9,2485.422,13.28,772.0,0.526,83.7
2023-12-13T01:48:13,2420,42.8014,5.9826,0.611,0.05,3.633,155.0,151.0,152.0,11.8,1504.7,271.3,-0.8,0.9,2485.195,13.28,792.0,0.613,85.3
2023-12-13T01:51:13,2420,42.8014,5.9826,0.514,0.062,3.716,155.0,152.0,152.0,11.8,1504.7,271.5,-0.8,0.9,2485.623,13.28,768.0,0.518,83.1
2023-12-13T01:54:12,2420,42.8014,5.9826,0.562,0.05,3.694,155.0,151.0,152.0,11.8,1504.7,271.4,-0.8,0.9,2485.34,13.28,767.0,0.564,84.9
2023-12-13T01:57:12,2420,42.8014,5.9826,0.623,0.044,3.657,155.0,152.0,152.0,11.8,1504.7,271.3,-0.9,0.9,2485.099,13.28,779.0,0.624,86.0
2023-12-13T02:03:13,2420,42.8014,5.9826,0.607,0.049,3.653,155.0,152.0,152.0,11.8,1504.7,271.4,-0.8,0.9,2485.295,13.28,758.0,0.609,85.4
2023-12-13T02:06:13,2420,42.8014,5.9826,0.446,0.022,3.834,155.0,151.0,152.0,11.8,1504.7,271.5,-0.8,0.9,2485.876,13.28,780.0,0.447,87.2
2023-12-13T02:09:13,2420,42.8014,5.9826,0.657,0.054,3.621,155.0,152.0,152.0,11.8,1504.7,271.4,-0.9,0.9,2485.528,13.28,767.0,0.659,85.3
2023-12-13T02:12:13,2420,42.8014,5.9826,0.657,0.021,3.636,155.0,151.0,152.0,11.8,1504.7,271.5,-0.8,0.9,2485.091,13.28,786.0,0.657,88.2
2023-12-13T02:15:13,2420,42.8014,5.9826,0.719,0.052,3.533,155.0,151.0,152.0,11.8,1504.7,271.7,-0.8,0.9,2485.566,13.28,768.0,0.721,85.9
2023-12-13T02:18:13,2420,42.8014,5.9826,0.49,0.052,3.834,155.0,151.0,152.0,11.8,1504.7,271.5,-0.8,0.9,2485.615,13.28,776.0,0.493,83.9
2023-12-13T02:21:13,2420,42.8014,5.9826,0.621,0.013,3.68,155.0,151.0,152.0,11.8,1504.7,271.5,-0.8,0.9,2485.613,13.28,772.0,0.621,88.8
2023-12-13T02:24:13,2420,42.8014,5.9826,0.818,0.048,3.427,155.0,152.0,152.0,11.8,1504.7,271.4,-0.8,0.9,2485.691,13.28,971.0,0.819,86.6
2023-12-13T02:27:13,2420,42.8014,5.9826,0.837,0.031,3.383,155.0,151.0,152.0,11.8,1504.7,271.4,-0.8,0.9,2485.161,13.28,772.0,0.838,87.9
2023-12-13T02:30:13,2420,42.8014,5.9826,0.752,0.039,3.501,155.0,151.0,152.0,11.7,1504.7,271.4,-0.8,0.9,2485.245,13.28,766.0,0.753,87.0
2023-12-13T02:33:13,2420,42.8014,5.9826,0.593,0.064,3.661,155.0,151.0,152.0,11.8,1504.7,271.4,-0.8,0.9,2485.247,13.28,776.0,0.596,83.8
2023-12-13T02:36:13,2420,42.8014,5.9826,0.549,0.034,3.708,155.0,152.0,152.0,11.8,1504.7,271.4,-0.8,0.9,2485.201,13.28,772.0,0.55,86.5
2023-12-13T02:39:13,2420,42.8014,5.9826,0.686,0.036,3.6,155.0,151.0,152.0,11.8,1504.7,271.4,-0.9,0.9,2485.412,13.28,764.0,0.687,87.0
2023-12-13T02:42:13,2420,42.8014,5.9826,0.631,0.052,3.628,155.0,151.0,152.0,11.8,1504.7,271.3,-0.8,0.9,2485.346,13.28,775.0,0.633,85.3
2023-12-13T02:45:13,2420,42.8014,5.9826,0.571,0.052,3.686,155.0,152.0,152.0,11.7,1504.7,271.4,-0.8,0.9,2485.388,13.28,771.0,0.573,84.8
2023-12-13T02:48:13,2420,42.8014,5.9826,0.62,0.058,3.632,155.0,151.0,152.0,11.8,1504.7,271.4,-0.8,0.9,2485.273,13.28,775.0,0.623,84.7
2023-12-13T02:51:13,2420,42.8014,5.9826,0.798,0.04,3.49,155.0,151.0,152.0,11.8,1504.7,271.3,-0.9,0.9,2485.504,13.28,790.0,0.799,87.1
2023-12-13T02:54:13,2420,42.8014,5.9826,0.686,0.042,3.599,155.0,151.0,152.0,11.8,1504.7,271.3,-0.8,0.9,2485.368,13.28,772.0,0.687,86.5
2023-12-13T02:57:13,2420,42.8014,5.9826,0.728,0.033,3.554,155.0,151.0,152.0,11.8,1504.7,271.4,-0.8,0.8,2485.028,13.28,773.0,0.729,87.4
2023-12-13T03:03:13,2420,42.8014,5.9826,0.791,0.065,3.418,155.0,151.0,152.0,11.8,1504.7,271.0,-0.8,0.9,2485.426,13.28,761.0,0.794,85.3
2023-12-13T03:06:13,2420,42.8014,5.9826,1.059,0.016,3.209,155.0,152.0,152.0,11.8,1504.7,271.2,-0.8,0.9,2485.546,13.28,771.0,1.059,89.1
2023-12-13T03:09:13,2420,42.8014,5.9826,0.614,0.046,3.594,156.0,152.0,153.0,11.7,1504.7,271.4,-0.8,0.9,2484.779,13.28,776.0,0.616,85.7
2023-12-13T03:12:13,2420,42.8014,5.9826,0.083,0.066,4.033,155.0,152.0,152.0,11.7,1504.7,270.9,-0.9,0.9,2485.075,13.28,773.0,0.106,51.5
2023-12-13T03:15:13,2420,42.8014,5.9826,0.058,0.073,4.124,155.0,152.0,153.0,11.7,1504.7,271.8,-0.8,0.9,2485.044,13.28,771.0,0.093,38.5
2023-12-13T03:18:13,2420,42.8014,5.9826,1.068,0.03,3.168,155.0,152.0,152.0,11.8,1504.7,271.5,-0.8,0.9,2485.087,13.28,768.0,1.068,88.4
2023-12-13T03:21:12,2420,42.8014,5.9826,1.073,0.029,3.168,155.0,151.0,152.0,11.8,1504.7,271.5,-0.8,0.9,2485.456,13.28,766.0,1.073,88.5
2023-12-13T03:24:13,2420,42.8014,5.9826,1.093,0.033,3.15,155.0,152.0,152.0,11.8,1504.7,271.5,-0.9,0.9,2485.251,13.28,774.0,1.093,88.3
2023-12-13T03:27:13,2420,42.8014,5.9826,0.901,0.259,2.891,155.0,151.0,152.0,11.8,1504.7,271.5,-0.8,0.9,2485.44,13.28,773.0,0.938,74.0
2023-12-13T03:30:13,2420,42.8014,5.9826,1.02,0.027,3.292,155.0,152.0,152.0,11.8,1504.7,271.5,-0.8,0.8,2485.687,13.28,774.0,1.02,88.5
2023-12-13T03:33:13,2420,42.8014,5.9826,1.117,0.011,3.198,155.0,152.0,152.0,11.8,1504.7,271.3,-0.8,0.9,2485.197,13.28,766.0,1.117,89.4
2023-12-13T03:36:13,2420,42.8014,5.9826,1.013,0.033,3.206,155.0,152.0,152.0,11.8,1504.7,271.5,-0.8,0.9,2485.432,13.28,768.0,1.014,88.1
2023-12-13T03:39:13,2420,42.8014,5.9826,1.077,0.031,3.189,155.0,151.0,153.0,11.8,1504.7,271.5,-0.8,0.9,2485.773,13.28,783.0,1.077,88.4
2023-12-13T03:42:13,2420,42.8014,5.9826,0.968,0.035,3.261,155.0,152.0,152.0,11.8,1504.7,271.4,-0.8,0.8,2485.647,13.28,782.0,0.969,87.9
2023-12-13T03:45:13,2420,42.8014,5.9826,0.963,0.051,3.312,155.0,152.0,152.0,11.8,1504.7,271.3,-0.8,0.9,2485.227,13.28,771.0,0.964,87.0
2023-12-13T03:48:13,2420,42.8014,5.9826,1.075,0.033,3.239,155.0,152.0,152.0,11.8,1504.7,271.3,-0.8,0.9,2485.193,13.28,783.0,1.075,88.2
2023-12-13T03:51:13,2420,42.8014,5.9826,0.911,0.033,3.338,155.0,152.0,152.0,11.7,1504.7,271.5,-0.9,0.8,2485.257,13.28,760.0,0.912,87.9
2023-12-13T03:54:13,2420,42.8014,5.9826,0.967,0.031,3.337,155.0,152.0,152.0,11.7,1504.7,271.4,-0.8,0.9,2485.269,13.28,780.0,0.967,88.2
2023-12-13T03:57:12,2420,42.8014,5.9826,0.854,0.028,3.457,155.0,151.0,152.0,11.8,1504.7,271.4,-0.8,0.9,2485.352,13.28,764.0,0.854,88.1
2023-12-13T04:03:13,2420,42.8014,5.9826,0.906,0.061,3.415,155.0,152.0,152.0,11.8,1504.7,271.5,-0.8,0.9,2485.253,13.28,899.0,0.908,86.1
2023-12-13T04:06:13,2420,42.8014,5.9826,1.113,0.018,3.224,155.0,152.0,152.0,11.8,1504.7,271.7,-0.8,0.9,2485.334,13.28,773.0,1.113,89.1
2023-12-13T04:09:13,2420,42.8014,5.9826,1.047,0.016,3.251,155.0,152.0,152.0,11.7,1504.7,271.4,-0.9,0.9,2485.245,13.28,781.0,1.047,89.1
2023-12-13T04:12:13,2420,42.8014,5.9826,1.049,0.025,3.273,155.0,152.0,152.0,11.8,1504.7,271.4,-0.9,0.9,2485.514,13.28,773.0,1.049,88.6
2023-12-13T04:15:13,2420,42.8014,5.9826,1.122,0.014,3.179,155.0,151.0,152.0,11.8,1504.7,271.4,-0.9,0.9,2485.809,13.28,771.0,1.122,89.3
2023-12-13T04:18:13,2420,42.8014,5.9826,1.022,0.035,3.311,155.0,152.0,152.0,11.8,1504.7,271.4,-0.8,0.9,2485.41,13.28,768.0,1.023,88.0
2023-12-13T04:21:13,2420,42.8014,5.9826,1.1,0.032,3.187,155.0,152.0,152.0,11.8,1504.7,271.5,-0.8,0.9,2485.275,13.28,775.0,1.1,88.3
2023-12-13T04:24:13,2420,42.8014,5.9826,1.149,0.018,3.135,155.0,152.0,152.0,11.8,1504.7,271.4,-0.9,0.9,2485.538,13.28,766.0,1.149,89.1
2023-12-13T04:27:13,2420,42.8014,5.9826,1.221,0.016,3.053,155.0,152.0,152.0,11.8,1504.7,271.5,-0.8,0.9,2485.613,13.28,779.0,1.221,89.3
2023-12-13T04:30:13,2420,42.8014,5.9826,1.037,0.027,3.248,155.0,152.0,152.0,11.8,1504.7,271.3,-0.9,0.8,2485.645,13.28,755.0,1.037,88.5
2023-12-13T04:33:13,2420,42.8014,5.9826,1.042,0.039,3.259,155.0,152.0,152.0,11.8,1504.7,271.3,-0.8,0.9,2485.289,13.28,757.0,1.043,87.9
2023-12-13T04:36:13,2420,42.8014,5.9826,0.625,0.492,2.832,155.0,151.0,152.0,11.8,1504.7,271.5,-0.8,0.9,2485.52,13.28,769.0,0.795,51.8
2023-12-13T04:39:13,2420,42.8014,5.9826,1.028,0.036,3.332,155.0,152.0,152.0,11.8,1504.7,271.5,-0.8,0.9,2485.691,13.28,771.0,1.028,88.0
2023-12-13T04:42:13,2420,42.8014,5.9826,1.011,0.014,3.262,155.0,152.0,152.0,11.8,1504.7,271.5,-0.8,0.9,2485.512,13.28,768.0,1.011,89.2
2023-12-13T04:45:13,2420,42.8014,5.9826,0.919,0.033,3.408,155.0,152.0,152.0,11.8,1504.7,271.4,-0.8,0.8,2485.113,13.28,775.0,0.92,87.9
2023-12-13T04:48:13,2420,42.8014,5.9826,1.018,0.025,3.328,155.0,151.0,152.0,11.8,1504.7,271.6,-0.8,0.9,2485.386,13.28,760.0,1.018,88.6
2023-12-13T04:51:13,2420,42.8014,5.9826,0.946,0.262,2.96,155.0,151.0,152.0,11.8,1504.7,271.5,-0.8,0.9,2485.554,13.28,760.0,0.982,74.5
2023-12-13T04:54:13,2420,42.8014,5.9826,0.981,0.025,3.366,155.0,152.0,152.0,11.8,1504.7,271.5,-0.8,0.8,2485.494,13.28,769.0,0.981,88.5
2023-12-13T04:57:13,2420,42.8014,5.9826,0.808,0.035,3.552,155.0,152.0,152.0,11.7,1504.7,271.4,-0.8,0.9,2485.57,13.28,767.0,0.809,87.5
2023-12-13T05:03:13,2420,42.8014,5.9826,0.915,0.046,3.399,155.0,151.0,152.0,11.8,1504.7,271.5,-0.9,0.9,2485.426,13.28,768.0,0.916,87.1
2023-12-13T05:06:13,2420,42.8014,5.9826,0.988,0.028,3.286,155.0,152.0,152.0,11.8,1504.7,271.4,-0.8,0.9,2485.715,13.28,775.0,0.988,88.4
2023-12-13T05:09:13,2420,42.8014,5.9826,1.035,0.021,3.322,155.0,152.0,152.0,11.8,1504.7,271.5,-0.8,0.9,2485.219,13.28,771.0,1.035,88.8
2023-12-13T05:12:13,2420,42.8014,5.9826,0.84,0.271,3.034,155.0,151.0,152.0,11.8,1504.7,271.6,-0.8,0.9,2485.466,13.28,765.0,0.883,72.1
2023-12-13T05:15:13,2420,42.8014,5.9826,1.016,0.012,3.317,155.0,152.0,152.0,11.8,1504.7,271.4,-0.8,0.9,2485.536,13.28,776.0,1.016,89.3
2023-12-13T05:18:13,2420,42.8014,5.9826,1.116,0.039,3.162,155.0,151.0,152.0,11.8,1504.7,271.6,-0.8,0.8,2485.639,13.28,773.0,1.116,88.0
2023-12-13T05:21:13,2420,42.8014,5.9826,0.985,0.022,3.38,155.0,152.0,152.0,11.8,1504.7,271.5,-0.8,0.9,2485.378,13.28,790.0,0.985,88.7
2023-12-13T05:24:13,2420,42.8014,5.9826,0.968,0.022,3.338,155.0,151.0,152.0,11.8,1504.7,271.4,-0.8,0.9,2485.498,13.28,767.0,0.968,88.7
2023-12-13T05:27:13,2420,42.8014,5.9826,1.001,0.028,3.305,155.0,152.0,152.0,11.8,1504.7,271.5,-0.8,0.9,2485.699,13.28,774.0,1.001,88.4
2023-12-13T05:30:13,2420,42.8014,5.9826,0.981,0.02,3.334,155.0,152.0,152.0,11.8,1504.7,271.3,-0.9,0.9,2485.667,13.28,779.0,0.981,88.8
2023-12-13T05:33:13,2420,42.8014,5.9826,1.02,0.03,3.282,155.0,151.0,152.0,11.8,1504.7,271.3,-0.9,0.9,2485.486,13.28,777.0,1.02,88.3
2023-12-13T05:36:13,2420,42.8014,5.9826,1.037,0.026,3.252,155.0,151.0,152.0,11.8,1504.7,271.4,-0.8,0.9,2485.575,13.28,780.0,1.037,88.6
2023-12-13T05:39:13,2420,42.8014,5.9826,0.717,-0.206,3.158,155.0,152.0,152.0,11.8,1504.7,271.4,-0.9,0.9,2485.91,13.28,771.0,0.746,106.0
2023-12-13T05:42:13,2420,42.8014,5.9826,0.87,0.033,3.419,155.0,152.0,152.0,11.8,1504.7,271.5,-0.8,0.9,2485.422,13.28,779.0,0.871,87.8
2023-12-13T05:45:13,2420,42.8014,5.9826,0.788,0.265,3.083,155.0,152.0,152.0,11.7,1504.7,271.5,-0.8,0.9,2485.617,13.28,797.0,0.831,71.4
2023-12-13T05:48:13,2420,42.8014,5.9826,0.894,0.285,3.001,155.0,151.0,152.0,11.8,1504.7,271.5,-0.8,0.9,2485.765,13.28,774.0,0.938,72.3
2023-12-13T05:51:13,2420,42.8014,5.9826,0.928,0.266,2.927,155.0,151.0,152.0,11.8,1504.7,271.6,-0.8,0.9,2485.53,13.28,767.0,0.965,74.0
2023-12-13T05:54:13,2420,42.8014,5.9826,0.879,0.023,3.392,155.0,152.0,152.0,11.8,1504.7,271.5,-0.8,0.9,2485.825,13.28,762.0,0.879,88.5
2023-12-13T05:57:12,2420,42.8014,5.9826,0.945,0.03,3.342,155.0,152.0,152.0,11.7,1504.7,271.4,-0.9,0.9,2485.825,13.28,777.0,0.945,88.2
2023-12-13T06:03:13,2420,42.8014,5.9826,1.109,0.032,3.15,155.0,152.0,152.0,11.8,1504.7,271.4,-0.8,0.9,2485.498,13.28,771.0,1.109,88.4
2023-12-13T06:06:12,2420,42.8014,5.9826,1.034,0.021,3.33,155.0,152.0,152.0,11.8,1504.7,271.4,-0.8,0.9,2485.43,13.28,771.0,1.034,88.8
2023-12-13T06:09:13,2420,42.8014,5.9826,0.966,0.027,3.338,155.0,151.0,152.0,11.8,1504.7,271.4,-0.8,0.9,2485.92,13.28,779.0,0.966,88.4
2023-12-13T06:12:13,2420,42.8014,5.9826,0.624,0.286,3.266,155.0,152.0,152.0,11.8,1504.7,271.4,-0.8,0.9,2485.789,13.28,775.0,0.686,65.4
2023-12-13T06:15:13,2420,42.8014,5.9826,0.917,0.028,3.4,155.0,152.0,152.0,11.8,1504.7,271.4,-0.8,0.9,2485.679,13.28,774.0,0.917,88.3
2023-12-13T06:18:13,2420,42.8014,5.9826,0.764,-0.217,3.131,155.0,152.0,152.0,11.7,1504.7,271.3,-0.8,0.9,2485.733,13.28,772.0,0.794,105.9
2023-12-13T06:21:13,2420,42.8014,5.9826,1.001,0.033,3.312,155.0,152.0,152.0,11.8,1504.7,271.5,-0.8,0.9,2485.554,13.28,762.0,1.002,88.1
2023-12-13T06:24:13,2420,42.8014,5.9826,0.829,0.04,3.542,155.0,151.0,152.0,11.8,1504.7,271.4,-0.8,0.9,2485.235,13.28,759.0,0.83,87.2
2023-12-13T06:27:12,2420,42.8014,5.9826,0.944,0.043,3.36,155.0,152.0,152.0,11.7,1504.7,271.4,-0.9,0.8,2485.372,13.28,773.0,0.945,87.4
2023-12-13T06:30:13,2420,42.8014,5.9826,1.084,0.033,3.284,155.0,152.0,152.0,11.8,1504.7,271.4,-0.9,0.9,2485.852,13.28,780.0,1.084,88.3
2023-12-13T06:33:13,2420,42.8014,5.9826,0.914,0.267,2.898,155.0,152.0,152.0,11.8,1504.7,271.4,-0.8,0.9,2485.542,13.28,764.0,0.952,73.7
2023-12-13T06:36:12,2420,42.8014,5.9826,0.973,0.025,3.339,155.0,152.0,152.0,11.8,1504.7,271.5,-0.9,0.9,2485.41,13.28,762.0,0.973,88.5
2023-12-13T06:39:13,2420,42.8014,5.9826,1.096,0.034,3.286,155.0,151.0,152.0,11.7,1504.7,271.3,-0.9,0.9,2485.645,13.28,776.0,1.096,88.2
2023-12-13T06:42:13,2420,42.8014,5.9826,0.738,0.283,3.157,155.0,151.0,152.0,11.8,1504.7,271.5,-0.8,0.9,2485.577,13.28,775.0,0.79,69.0
2023-12-13T06:45:13,2420,42.8014,5.9826,0.749,0.262,3.138,155.0,152.0,152.0,11.8,1504.7,271.4,-0.8,0.9,2485.862,13.28,765.0,0.793,70.7
2023-12-13T06:48:13,2420,42.8014,5.9826,0.962,0.037,3.328,155.0,152.0,152.0,11.7,1504.7,271.5,-0.8,0.9,2485.615,13.28,776.0,0.963,87.8
2023-12-13T06:51:13,2420,42.8014,5.9826,0.995,0.018,3.289,155.0,152.0,152.0,11.8,1504.7,271.5,-0.8,0.9,2485.54,13.28,771.0,0.995,89.0
2023-12-13T06:54:13,2420,42.8014,5.9826,0.801,-0.187,3.055,155.0,151.0,152.0,11.8,1504.7,271.5,-0.9,0.9,2485.386,13.28,771.0,0.823,103.1
2023-12-13T06:57:13,2420,42.8014,5.9826,0.908,0.047,3.45,155.0,151.0,152.0,11.7,1504.7,271.5,-0.8,0.9,2485.37,13.28,775.0,0.909,87.0
2023-12-13T07:03:13,2420,42.8014,5.9826,0.991,0.028,3.331,155.0,152.0,152.0,11.7,1504.7,271.5,-0.8,0.9,2485.741,13.28,764.0,0.991,88.4
2023-12-13T07:06:13,2420,42.8014,5.9826,1.053,0.029,3.237,155.0,152.0,152.0,11.8,1504.7,271.4,-0.8,0.9,2485.609,13.28,789.0,1.053,88.4
2023-12-13T07:09:13,2420,42.8014,5.9826,0.774,0.046,3.55,155.0,152.0,152.0,11.8,1504.7,271.3,-0.8,0.8,2485.87,13.28,771.0,0.775,86.6
2023-12-13T07:12:13,2420,42.8014,5.9826,0.796,-0.213,3.07,155.0,151.0,152.0,11.8,1504.7,271.6,-0.8,0.9,2485.637,13.28,771.0,0.824,105.0
2023-12-13T07:15:13,2420,42.8014,5.9826,0.753,0.266,3.12,155.0,152.0,152.0,11.8,1504.7,271.4,-0.9,0.9,2486.123,13.28,776.0,0.799,70.5
2023-12-13T07:18:13,2420,42.8014,5.9826,0.914,0.015,3.365,155.0,151.0,152.0,11.8,1504.7,271.4,-0.8,0.9,2485.514,13.28,775.0,0.914,89.1
2023-12-13T07:21:13,2420,42.8014,5.9826,0.947,0.041,3.367,155.0,152.0,152.0,11.8,1504.7,271.3,-0.9,0.9,2485.426,13.28,767.0,0.948,87.5
2023-12-13T07:24:13,2420,42.8014,5.9826,1.024,0.036,3.325,155.0,152.0,152.0,11.8,1504.7,271.3,-0.8,0.9,2485.625,13.28,776.0,1.024,88.0
2023-12-13T07:27:12,2420,42.8014,5.9826,0.796,0.267,3.139,155.0,151.0,152.0,11.8,1504.7,271.4,-0.8,0.9,2485.657,13.28,768.0,0.84,71.5
2023-12-13T07:30:13,2420,42.8014,5.9826,0.553,-0.234,2.446,155.0,154.0,152.0,11.8,1504.7,271.4,-0.9,0.9,2485.404,13.28,771.0,0.6,112.9
2023-12-13T07:33:13,2420,42.8014,5.9826,0.965,0.257,2.924,155.0,152.0,152.0,11.8,1504.7,271.4,-0.8,0.9,2485.745,13.28,768.0,0.999,75.1
2023-12-13T07:36:13,2420,42.8014,5.9826,1.058,0.025,3.234,155.0,152.0,152.0,11.8,1504.7,271.4,-0.8,0.9,2485.87,13.28,781.0,1.058,88.6
2023-12-13T07:39:13,2420,42.8014,5.9826,0.852,0.037,3.446,155.0,152.0,152.0,11.8,1504.7,271.4,-0.8,0.9,2485.482,13.28,765.0,0.853,87.5
2023-12-13T07:42:13,2420,42.8014,5.9826,0.501,0.274,3.392,155.0,152.0,152.0,11.8,1504.7,271.3,-0.8,0.9,2485.293,13.28,778.0,0.571,61.3
2023-12-13T07:45:13,2420,42.8014,5.9826,1.018,0.015,3.297,155.0,152.0,152.0,11.8,1504.7,271.4,-0.8,0.9,2485.833,13.28,774.0,1.018,89.2
2023-12-13T07:48:13,2420,42.8014,5.9826,1.041,0.039,3.272,155.0,152.0,152.0,11.8,1504.7,271.3,-0.8,0.9,2485.719,13.28,760.0,1.042,87.9
2023-12-13T07:51:12,2420,42.8014,5.9826,0.845,-0.226,3.021,155.0,151.0,152.0,11.8,1504.7,271.4,-0.8,0.9,2485.518,13.28,767.0,0.875,105.0
2023-12-13T07:54:13,2420,42.8014,5.9826,1.001,0.045,3.356,155.0,152.0,152.0,11.8,1504.7,271.5,-0.8,0.9,2485.984,13.28,762.0,1.002,87.4
2023-12-13T07:57:13,2420,42.8014,5.9826,1.056,0.057,3.239,155.0,151.0,152.0,11.8,1504.7,271.5,-0.8,0.9,2485.309,13.28,783.0,1.057,86.9
2023-12-13T08:03:13,2420,42.8014,5.9826,0.973,0.034,3.378,155.0,152.0,152.0,11.8,1504.7,271.4,-0.8,0.9,2485.488,13.28,771.0,0.974,88.0
2023-12-13T08:06:13,2420,42.8014,5.9826,0.951,0.053,3.332,155.0,151.0,152.0,11.8,1504.7,271.3,-0.8,0.9,2485.502,13.28,774.0,0.952,86.8
2023-12-13T08:09:13,2420,42.8014,5.9826,0.907,0.028,3.4,155.0,151.0,152.0,11.8,1504.7,271.3,-0.8,0.9,2485.701,13.28,791.0,0.907,88.2
2023-12-13T08:12:13,2420,42.8014,5.9826,0.955,0.04,3.386,155.0,151.0,152.0,11.7,1504.7,271.3,-0.9,0.9,2485.516,13.28,768.0,0.956,87.6
2023-12-13T08:15:13,2420,42.8014,5.9826,0.974,0.051,3.333,155.0,151.0,152.0,11.8,1504.7,271.3,-0.8,0.9,2485.667,13.28,777.0,0.975,87.0
2023-12-13T08:18:13,2420,42.8014,5.9826,1.001,0.05,3.328,155.0,151.0,152.0,11.8,1504.7,271.5,-0.8,0.9,2485.741,13.28,776.0,1.002,87.1
2023-12-13T08:21:13,2420,42.8014,5.9826,0.889,0.009,3.439,155.0,151.0,152.0,11.8,1504.7,271.4,-0.8,0.9,2485.773,13.28,777.0,0.889,89.4
2023-12-13T08:24:12,2420,42.8014,5.9826,0.917,0.036,3.386,155.0,152.0,152.0,11.8,1504.7,271.5,-0.8,0.9,2485.452,13.28,773.0,0.918,87.8
2023-12-13T08:27:13,2420,42.8014,5.9826,0.751,0.028,3.486,155.0,152.0,152.0,11.8,1504.7,271.3,-0.9,0.9,2485.591,13.28,762.0,0.752,87.9
2023-12-13T08:30:13,2420,42.8014,5.9826,1.035,0.049,3.276,155.0,152.0,152.0,11.8,1504.7,271.4,-0.8,0.9,2485.263,13.28,759.0,1.036,87.3
2023-12-13T08:33:13,2420,42.8014,5.9826,0.779,0.007,3.486,155.0,151.0,152.0,11.8,1504.7,271.4,-0.8,0.9,2485.605,13.28,766.0,0.779,89.5
2023-12-13T08:36:13,2420,42.8014,5.9826,1.024,0.045,3.315,155.0,152.0,152.0,11.8,1504.7,271.4,-0.8,0.9,2485.575,13.28,764.0,1.025,87.5
2023-12-13T08:39:13,2420,42.8014,5.9826,0.861,0.032,3.417,155.0,152.0,152.0,11.8,1504.7,271.4,-0.8,0.9,2485.32,13.28,758.0,0.862,87.9
2023-12-13T08:42:13,2420,42.8014,5.9826,0.941,0.046,3.421,155.0,152.0,152.0,11.8,1504.7,271.4,-0.8,0.9,2485.91,13.28,776.0,0.942,87.2
2023-12-13T08:45:13,2420,42.8014,5.9826,0.657,0.051,3.674,155.0,152.0,152.0,11.8,1504.7,271.4,-0.9,0.9,2485.544,13.28,773.0,0.659,85.6
2023-12-13T08:48:13,2420,42.8014,5.9826,0.868,0.026,3.434,155.0,151.0,152.0,11.8,1504.7,271.4,-0.8,0.9,2485.506,13.28,3426.0,0.868,88.3
2023-12-13T08:51:13,2420,42.8014,5.9826,1.013,0.03,3.317,155.0,152.0,152.0,11.8,1504.7,271.3,-0.8,0.9,2485.795,13.28,759.0,1.013,88.3
2023-12-13T08:54:13,2420,42.8014,5.9826,1.014,0.046,3.308,155.0,151.0,152.0,11.8,1504.7,271.3,-0.8,0.9,2485.868,13.28,771.0,1.015,87.4
2023-12-13T08:57:12,2420,42.8014,5.9826,0.876,0.038,3.472,155.0,152.0,152.0,11.8,1504.7,271.3,-0.9,0.9,2485.685,13.28,772.0,0.877,87.5
2023-12-13T09:03:13,2420,42.8014,5.9826,0.633,0.528,2.841,155.0,152.0,152.0,11.8,1504.7,271.4,-0.8,0.9,2485.777,13.28,768.0,0.824,50.2
2023-12-13T09:06:12,2420,42.8014,5.9826,1.127,0.264,2.762,155.0,152.0,152.0,11.7,1504.7,271.3,-0.8,0.9,2485.641,13.28,767.0,1.157,76.8